Regional Weather Roundup
Issued by NWS Cleveland, OH

Home | Current Version | Previous Version | Text Only | Print | Product List | Glossary Off
Versions: 1 2 3 4 5 6 7 8 9 10 11 12 13 14 15 16 17 18 19 20 21 22 23 24 25 26 27 28 29 30 31 32 33 34 35 36 37 38 39 40 41 42 43 44 45 46 47 48 49 50

000
ASUS41 KCLE 302302
RWRCLE
OHIO REGIONAL WEATHER ROUNDUP
NATIONAL WEATHER SERVICE CLEVELAND, OH
700 PM EDT SAT AUG 30 2014

NOTE: "FAIR" INDICATES FEW OR NO CLOUDS BELOW 12,000 FEET WITH NO
SIGNIFICANT WEATHER AND/OR OBSTRUCTIONS TO VISIBILITY.

OHZ001>008-015>018-024>027-034-035-043-044-310000-
   NORTHWEST OHIO

CITY           SKY/WX    TMP DP  RH WIND       PRES   REMARKS
DEFIANCE       PTSUNNY   81  68  64 SW15G24   29.92R
FINDLAY        MOSUNNY   79  68  69 S14       29.95R
TOLEDO EXPRESS MOSUNNY   80  68  66 SW13G20   29.91R
TOLEDO EXEC    MOSUNNY   82  66  58 S16       29.92R
LIMA           PTSUNNY   78  69  73 SW12      29.98R
$$

OHZ009>014-019>023-028>033-038-089-310000-
   NORTHEAST OHIO

CITY           SKY/WX    TMP DP  RH WIND       PRES   REMARKS
CLE-HOPKINS    PTSUNNY   84  65  52 S13       29.96S
CLE-LAKEFRONT  PTSUNNY   87  63  44 S17G29    29.92R
CUY CO. ARPT   PTSUNNY   86  68  54 SW8G17    29.96S
LORAIN-ELYRIA  MOSUNNY   86  67  52 SW9       29.96S
ASHTABULA      MOSUNNY   82  66  58 S7        29.96F
AKRON-CANTON   PTSUNNY   85  65  51 SW12G23   29.99S
WOOSTER        PTSUNNY   83  67  58 SW8       30.00R
MANSFIELD      SUNNY     82  66  58 SW12      30.00S
YOUNGSTOWN     PTSUNNY   83  64  52 S8        29.99F
$$

OHZ042-051>053-060>062-070>072-077>081-310000-
  SOUTHWEST OHIO

CITY           SKY/WX    TMP DP  RH WIND       PRES   REMARKS
CINC-COVINGTON LGT RAIN  74  70  87 S8        30.04S FOG
CINC-LUNKEN    LGT RAIN  73  71  93 SW3       30.03F
HAMILTON       LGT RAIN  76  72  87 S8        30.03R
DAYTON         CLOUDY    81  69  67 SW7       30.01S
WRIGHT-PAT AFB NOT AVBL
DAYTON GENERAL LGT RAIN  76  71  85 S12       30.02R
WILMINGTON     LGT RAIN  74  70  87 SW7       30.03R FOG
$$

OHZ036-037-039>041-045>050-054>059-063>069-073>076-082>088-310000-
  CENTRAL AND SOUTHEAST OHIO

CITY           SKY/WX    TMP DP  RH WIND       PRES   REMARKS
COLUMBUS       PTSUNNY   87  66  49 SW10      29.99S
OSU AIRPORT    MOSUNNY   84  67  56 SW10      30.00S
BOLTON FIELD   SUNNY     81  70  69 SW9       30.01S
RICKENBACK AFB MOSUNNY   86  61  43 SW9       30.00R
NEWARK         MOSUNNY   83  67  58 SW5       30.00R
MARION         SUNNY     81  68  64 SW10      29.99S
LANCASTER      MOSUNNY   83  67  58 SW6       30.01S
ZANESVILLE     PTSUNNY   84  66  54 S7        30.00F
NEW PHILLY     SUNNY     83  67  58 S6        30.00F
$$



USA.gov is the U.S. government's official web portal to all federal, state and local government web resources and services.